Погода в Песковатке

Россия / Волгоградская область     48°54′51″N   43°48′21″E
темп.,
°C
ветер,
м/с
пор.,
м/с
влажн.,
%
обл.,
%
осадки,
мм/ч
давл.,
гПа
погр.,
м
17 мая, пн
пн1700:00+19вюв354597 0.0 101164
03:00+17в474037 0.0 101183
06:00+17в412485 0.0 1011248
09:00+25вюв7113237 0.0 1011529
12:00+29юв9132386 0.0 10102476
15:00+31вюв8122313 0.0 10092854
18:00+26вюв4937100 0.0 1008153
21:00+21вюв45385 0.0 100963
18 мая, вт
вт1800:00+18в33395 0.0 100918
03:00+17всв333719 0.0 100825
06:00+17в3746100 0.0 1008142
09:00+23юв4632100 0.0 1008511
12:00+26юв5730100 0.0 10081101
15:00+24юз6744100 0.0 1008604
18:00+22зюз457191 0.0 1009400
21:00+18зсз478095 0.0 1009176
19 мая, ср
ср1900:00+16сз378522 0.0 1009185
03:00+15зсз358914 0.1 100996
06:00+16зсз35794 0.0 1008180
09:00+21зсз335919 0.0 1008774
12:00+25юз444799 0.0 10081608
15:00+25юз543884 0.0 10082103
18:00+17зюз7108095 0.2 1010447
21:00+14юз378888 0.2 1011298
20 мая, чт
чт2000:00+14зюз259081 0.3 1011211
03:00+12юз37960 0.3 1012204
06:00+13юз69880 0.0 1013371
09:00+17юз8107187 0.0 1013892
12:00+19юз8105625 0.1 10131570
15:00+20юз8105494 0.1 10131837
18:00+19юз6105920 0.1 10131612
21:00+15юз337178 0.1 101434
21 мая, пт
пт2100:00+14ю1173100 0.0 101510
03:00+13ююв228210 0.0 101511
06:00+15ююв2577100 0.0 1016166
09:00+21ююв575128 0.0 1016786
12:00+26ююв683693 0.0 10151675
15:00+26ююв4637100 0.0 10141371
18:00+26юв47448 0.0 1013201
21:00+21юв49515 0.0 1014120